Location: Erlenbrunn
(49.1717°N, 7.6142°E)
Time: 06:29:38
(UTC+00:00)

Sich 1 - Pass Details

Date: 25 November 2020
Orbit: 594 x 625 km, 82.5° (Epoch: 27 January)

Event Time Altitude Azimuth Distance (km) Brightness Sun altitude
Rises 17:11:55 0° 348° (NNW) 2,914 6.5 -14.9°
Reaches altitude 10° 17:14:10 10° 347° (NNW) 1,999 5.7 -15.3°
Maximum altitude 17:18:35 76° 263° (W) 640 3.2 -16.0°
Drops below altitude 10° 17:22:55 10° 178° (S) 1,963 5.8 -16.7°
Sets 17:25:07 0° 176° (S) 2,857 6.6 -17.0°
